Content
SEND FEEDBACK

Daily
Averages
Monthly
Summary
United States of America

WICHITA, KANSAS


Home > North America > United States > Kansas
Elevation: 402 meters     Latitude: 37 39N     Longitude: 097 26W

WEATHER
 
SELECT A DAY
Number of Records: 191,904;   Date Range: 1/1/95 - 7/29/14
 
SHARE

PRINT THIS DATA

[ ← Previous Day ]
WEATHER ALMANAC - 17 MARCH, 2013
[ Next Day → ]
[ °F ]   °C
Weather ElementAverageHighLow
Temperature3.7 °C6.1 °C (1:53 pm)2 °C (4:53 am)
Dewpoint0.3 °C2.2 °C (4:53 pm)-2 °C (1:48 am)
Humidity78.9 %93 % (8:53 pm)70 % (1:48 am)
Barometer1011.5 hPa1015.9 hPa (12:53 am)1006.8 hPa (6:53 pm)
Wind Speed18.7 km/h33.3 km/h (12:53 am)
Wind Gust46.3 km/h (12:53 am)
Weather ElementAverage
Visibility15.4 km
Wind DirectionENE (70 °)

Weather ElementTotal
Precipitation0.51 mm
Heating Degree Days14.3 (Base 18.3)
Averaged from 27 records on 17 March, 2013
WEATHER CONDITIONS BREAKOUT
WIND DIRECTION BREAKOUT
WEATHER BY HOUR - 17 MARCH, 2013
[ °F ]   °C
Local TimeTemperatureDewpointHumidityBarometerVisibilityWind DirectionWind SpeedGust SpeedPrecipitationEventsConditions
12:53 AM2.8 °C-1.7 °C73 %1015.9 hPa16.1 kmNE (50°)33.3 km/h46.3 km/hOvercast
1:48 AM3 °C-2 °C70 %1015.2 hPa16.1 kmNNE (30°)25.9 km/h0 mmRainLight Rain
1:53 AM2.2 °C-1.7 °C76 %1015.9 hPa16.1 kmNNE (30°)27.8 km/h0 mmRainLight Rain
2:53 AM2.2 °C-0.6 °C82 %1015.2 hPa16.1 kmNNE (30°)24.1 km/h0.51 mmRainLight Rain
3:53 AM2.2 °C-1.1 °C79 %1014.2 hPa16.1 kmNE (50°)24.1 km/h0 mmOvercast
4:53 AM2 °C-2 °C75 %1013.9 hPa16.1 kmNE (50°)25.9 km/hOvercast
5:53 AM2.2 °C-1.7 °C76 %1014.2 hPa16.1 kmENE (60°)22.2 km/hOvercast
6:53 AM2.2 °C-1.7 °C76 %1014.2 hPa16.1 kmENE (60°)18.5 km/hOvercast
7:53 AM2.8 °C-1.7 °C73 %1014.6 hPa16.1 kmNE (40°)13 km/hOvercast
8:53 AM2.8 °C-1.1 °C76 %1014.2 hPa16.1 kmNE (40°)20.4 km/hMostly Cloudy
9:12 AM3 °C-1 °C75 %1013.2 hPa16.1 kmNE (50°)20.4 km/hMostly Cloudy
9:53 AM3.9 °C-0.6 °C73 %1014.6 hPa16.1 kmNE (50°)20.4 km/hOvercast
10:53 AM5 °C0 °C70 %1013.5 hPa16.1 kmNE (50°)20.4 km/hOvercast
11:53 AM5.6 °C0.6 °C70 %1012.5 hPa16.1 kmNE (50°)20.4 km/h33.3 km/hOvercast
12:53 PM5.6 °C1.1 °C73 %1012.2 hPa16.1 kmENE (70°)16.7 km/hOvercast
1:53 PM6.1 °C1.1 °C71 %1010.8 hPa16.1 kmENE (70°)18.5 km/hOvercast
2:53 PM6.1 °C1.7 °C74 %1009.5 hPa16.1 kmENE (70°)18.5 km/hOvercast
3:53 PM5.6 °C1.7 °C76 %1008.5 hPa14.5 kmENE (60°)14.8 km/hOvercast
4:11 PM6 °C2 °C76 %1007.8 hPa14.5 kmEast (80°)16.7 km/hOvercast
4:53 PM5 °C2.2 °C82 %1007.5 hPa14.5 kmEast (90°)14.8 km/hOvercast
5:53 PM4.4 °C2.2 °C86 %1007.1 hPa16.1 kmESE (110°)14.8 km/hOvercast
6:53 PM3.9 °C1.7 °C86 %1006.8 hPa16.1 kmEast (80°)14.8 km/hOvercast
7:53 PM3.3 °C1.7 °C89 %1006.8 hPa16.1 kmESE (120°)16.7 km/hOvercast
8:53 PM3.3 °C2.2 °C93 %1007.8 hPa14.5 kmEast (80°)5.6 km/hOvercast
9:53 PM3.3 °C2.2 °C93 %1007.5 hPa9.7 kmSE (130°)13 km/hOvercast
10:53 PM3.3 °C2.2 °C93 %1007.5 hPa11.3 kmSE (130°)14.8 km/hOvercast
11:53 PM3.3 °C2.2 °C93 %1008.1 hPa16.1 kmSSE (160°)5.6 km/h0 mmOvercast
Hourly data recorded from KICT, located 0 kilometers away from Wichita, Kansas







STORIES FROM OUR PARTNERS